Flag for Thailand Weather past 2 weeks in Phuket, Thailand

Now
77 °F

Partly sunny.


Feels Like: 78 °F
Forecast: 81 / 86 °F
Wind: 2 mph from Southeast

Location: Phuket Airport

Current Time: Aug 22, 2014 at 7:31:35 AM

Latest Report: Aug 22, 2014 at 7:00 AM


Visibility: 6 mi

Pressure: 29.83 "Hg

Humidity: 94%

Dew point: 75 °F

Location of PhuketLocation

Historic Weather in Phuket — Graph

°F

Phuket temperature yesterday

Maximum temperature yesterday: 86 °F (at 12:00 PM)
Minimum temperature yesterday: 75 °F (at 4:30 AM)
Average temperature yesterday: 79 °F

Past Weeks' High & Low Weather Summary

 TemperatureHumidityPressure
High88 °F (Aug 8, 11:30 AM)94% (Aug 7, 9:00 PM)29.95 "Hg (Aug 7, 9:00 PM)
Low73 °F (Aug 16, 11:00 AM)59% (Aug 8, 11:30 AM)29.74 "Hg (Aug 21, 5:30 PM)
Average81 °F79%29.86 "Hg
* Reported Aug 7 6:00 AM — Aug 22 6:30 AM, Phuket, Weather by CustomWeather, © 2014

Note: Actual official high and low records may vary slightly from our data, if they occured in-between our weather recording intervals... More about our weather records

Advertising

Phuket weather history for previous 24 hours

 ConditionsComfort  
Time TempWeatherWind HumidityBarometerVisibility
6:30 AM
Aug 22
77 °FPartly sunny.No wind89%29.83 "Hg6 mi
6:00 AM77 °FPassing clouds.2 mph89%29.83 "Hg6 mi
4:00 AM77 °FPassing clouds.2 mph89%29.80 "Hg6 mi
2:30 AM77 °FWarm.3 mph94%29.83 "Hg6 mi
2:00 AM77 °FPassing clouds.2 mph94%29.83 "Hg6 mi
12:30 AM77 °FPassing clouds.2 mph94%29.86 "Hg6 mi
11:30 PM
Aug 21
77 °FPassing clouds.No wind94%29.86 "Hg6 mi
10:30 PM77 °FPassing clouds.No wind94%29.86 "Hg6 mi
10:00 PM77 °FPassing clouds.2 mph94%29.86 "Hg6 mi
9:30 PM79 °FPassing clouds.1 mph89%29.83 "Hg6 mi
9:00 PM79 °FPassing clouds.2 mph89%29.83 "Hg6 mi
8:30 PM79 °FPassing clouds.No wind89%29.83 "Hg6 mi
8:00 PM79 °FPassing clouds.No wind89%29.80 "HgN/A
7:30 PM79 °FPassing clouds.No wind89%29.80 "HgN/A
7:00 PM79 °FPassing clouds.No wind89%29.77 "HgN/A
6:30 PM81 °FBroken clouds.No wind84%29.77 "HgN/A
6:00 PM82 °FBroken clouds.No wind79%29.77 "HgN/A
5:30 PM82 °FBroken clouds.3 mph79%29.74 "HgN/A
5:00 PM84 °FBroken clouds.7 mph74%29.77 "HgN/A
4:30 PM84 °FBroken clouds.No wind74%29.77 "HgN/A
4:00 PM84 °FBroken clouds.No wind70%29.77 "HgN/A
3:30 PM79 °FPartly sunny.No wind84%29.77 "HgN/A
3:00 PM77 °FPartly sunny.3 mph89%29.80 "Hg5 mi
2:30 PM75 °FRain. Broken clouds.6 mph89%29.83 "Hg2 mi
2:00 PM75 °FRain. Broken clouds.6 mph89%29.83 "Hg2 mi
1:30 PM77 °FThunderstorms. Broken clouds.6 mph83%29.83 "Hg2 mi
1:00 PM79 °FRain. Broken clouds.13 mph79%29.83 "Hg5 mi
12:30 PM82 °FRain. Broken clouds.12 mph70%29.86 "Hg5 mi
12:00 PM86 °FBroken clouds.8 mph70%29.86 "Hg5 mi
11:30 AM84 °FPartly sunny.8 mph74%29.86 "HgN/A
11:00 AM84 °FPartly sunny.7 mph74%29.86 "HgN/A
10:30 AM84 °FPartly sunny.6 mph74%29.89 "Hg5 mi
10:00 AM82 °FPartly sunny.7 mph79%29.89 "Hg5 mi
9:30 AM82 °FPartly sunny.6 mph79%29.89 "Hg5 mi
9:00 AM81 °FPartly sunny.6 mph84%29.89 "Hg4 mi
8:30 AM81 °FPartly sunny.7 mph84%29.86 "Hg4 mi
8:00 AM79 °FBroken clouds.5 mph89%29.86 "Hg5 mi
7:30 AM77 °FBroken clouds.No wind94%29.86 "Hg5 mi
Weather by CustomWeather, © 2014

See weather overviewHow to use our weather pages